This is the latest recevied weather packets stored in our database for station/object JF7BTK-10. If no packets are shown the sender has not sent any weather packets the latest 10 day(s).
| Time | Temp. | Humidity | Pressure | Rain* | Wind** | Luminosity | Snow |
|---|---|---|---|---|---|---|---|
| 1788588951 | 23.89° C | 61% | 1010.1 hPa | 0 mm | - | - | - |
| 1788588786 | 23.89° C | 60% | 1010.1 hPa | 0 mm | - | - | - |
| 1788588651 | 23.89° C | 60% | 1010 hPa | 0 mm | - | - | - |
| 1788588351 | 24.44° C | 56% | 1010 hPa | 0 mm | - | - | - |
| 1788587887 | 26.11° C | 53% | 1010 hPa | 0 mm | - | - | - |
| 1788587455 | 27.22° C | 53% | 1010.1 hPa | 0 mm | - | - | - |
| 1788587151 | 26.67° C | 52% | 1010 hPa | 0 mm | - | - | - |
| 1788586987 | 27.22° C | 53% | 1010.1 hPa | 0 mm | - | - | - |
| 1788586851 | 26.67° C | 53% | 1010.1 hPa | 0 mm | - | - | - |
| 1788586550 | 27.22° C | 53% | 1010 hPa | 0 mm | - | - | - |
| 1788586087 | 26.67° C | 53% | 1010.1 hPa | 0 mm | - | - | - |
| 1788585950 | 26.67° C | 55% | 1010 hPa | 0 mm | - | - | - |
| 1788585187 | 25° C | 58% | 1010.1 hPa | 0 mm | - | - | - |
| 1788585051 | 25° C | 61% | 1010 hPa | 0 mm | - | - | - |
| 1788584450 | 23.89° C | 61% | 1010.2 hPa | 0 mm | - | - | - |
| 1788584288 | 23.89° C | 61% | 1010 hPa | 0 mm | - | - | - |
| 1788583850 | 24.44° C | 60% | 1010 hPa | 0 mm | - | - | - |
| 1788583387 | 24.44° C | 60% | 1010 hPa | 0 mm | - | - | - |
| 1788583250 | 24.44° C | 59% | 1010 hPa | 0 mm | - | - | - |
| 1788582651 | 25° C | 56% | 1009.9 hPa | 0 mm | - | - | - |
| 1788582488 | 25.56° C | 55% | 1009.9 hPa | 0 mm | - | - | - |
| 1788582351 | 26.11° C | 54% | 1010.1 hPa | 0 mm | - | - | - |
| 1788581588 | 26.67° C | 60% | 1009.9 hPa | 0 mm | - | - | - |
| 1788580851 | 23.89° C | 63% | 1009.9 hPa | 0 mm | - | - | - |
| 1788580688 | 23.33° C | 63% | 1010 hPa | 0 mm | - | - | - |
* Rain latest hour (hover to see other rain measurements)
** Current wind speed in m/s (hover to see current wind gust speed)